{"data":{"norad_id":56013,"intl_designator":"2023-042AD","name":"STARLINK-5941","alt_names":[],"object_type":"PAYLOAD","status":"ACTIVE","operator":null,"country":"US","launch_date":"2023-03-24","launch_site_code":"AFETR","launch_vehicle":null,"mission":null,"orbit_class":"UNKNOWN","rcs_meters":null,"size_class":null,"mass_kg":null,"dimensions":null,"purposes":["comms"],"wikipedia_slug":null,"has_3d_model":false,"image_url":null,"decayed_at":null,"tle_current":{"epoch":"2026-09-20T15:32:08.566368Z","epoch_age_seconds":93433,"freshness":"FRESH","line1":"1 56013U 23042AD  26263.64732137  .00000715  00000+0  35537-4 0  9997","line2":"2 56013  43.0037  38.7508 0002047 269.5024  90.5593 15.27577091192687","mean_motion":15.27577091,"eccentricity":0.0002047,"inclination_deg":43.0037,"raan_deg":38.7508,"arg_perigee_deg":269.5024,"mean_anomaly_deg":90.5593,"bstar":3.5537e-5,"rev_number":19268,"period_min":94.266928227978,"perigee_km":481.65332006906,"apogee_km":484.4622932229,"semimajor_km":6861.194806646,"source":"CELESTRAK","updated_at":"2026-09-21T09:00:33.354744Z"}}}